Location: Dos Palmas
(32.4468°N, 116.8732°W)
Time: 00:31:22
(UTC+00:00)

Cosmos 1515 Rocket - Pass Details

Date: 20 June 2021
Orbit: 607 x 629 km, 82.5° (Epoch: 01 August)

Event Time Altitude Azimuth Distance (km) Brightness Sun altitude
Rises 11:05:04 0° 355° (N) 2,906 7.6 -17.1°
Reaches altitude 10° 11:07:18 10° 356° (N) 2,000 6.7 -16.8°
Maximum altitude 11:11:45 81° 84° (E) 638 3.6 -16.1°
Drops below altitude 10° 11:16:11 10° 172° (S) 1,996 5.8 -15.4°
Enters shadow 11:16:31 - 172° (S) 2,129 6.0 -15.4°
